Hourly Data Report for September 02, 2017

All times are specified in Local Standard Time (LST). Add 1 hour to adjust for Daylight Saving Time where and when it is observed.

COMOX A
BRITISH COLUMBIA

49°43'00.000" N
124°54'00.000" W
25.60 m
1021830
71893
YQQ

Download Data

Hourly Data (September 2017)
Hourly Data Report for September 2, 2017
Temp Definition
°C
Dew Point Temp Definition
°C
Rel Hum Definition
%
Wind Dir Definition
10's deg

Wind Spd Definition
km/h
Visibility Definition
km
Stn Press Definition
kPa
Hmdx Definition


Wind Chill Definition


Weather Definition


TIME
00:00 16.1 11.2 73   0 32.2 101.43     Clear
01:00 16.5 10.3 67 29 6 32.2 101.44     Clear
02:00 15.9 10.4 70   0 32.2 101.42     Clear
03:00 15.8 10.4 70   0 32.2 101.40     Clear
04:00 14.9 10.4 74   0 32.2 101.37     Clear
05:00 14.7 10.3 75   0 32.2 101.38     Clear
06:00 14.2 10.7 79   0 32.2 101.39     Clear
07:00 17.0 11.3 69   0 32.2 101.40     Mainly Clear
08:00 20.5 12.0 58 8 6 32.2 101.40     Mainly Clear
09:00 21.1 14.2 65 11 6 32.2 101.38 25   Mainly Clear
10:00 23.6 13.0 51 12 9 32.2 101.36 26   Mainly Clear
11:00 25.0 11.6 43 15 9 32.2 101.33 27   Mostly Cloudy
12:00 26.2 12.3 42 17 7 32.2 101.30 29   Mainly Clear
13:00 24.4 14.1 53 9 11 32.2 101.26 28   Mainly Clear
14:00 26.2 12.0 41 9 7 32.2 101.23 28   Mainly Clear
15:00 25.1 12.0 44 6 6 32.2 101.19 27   Mainly Clear
16:00 26.5 11.2 38 5 7 32.2 101.15 28   Mainly Clear
17:00 26.3 11.5 40 11 7 32.2 101.12 28   Mainly Clear
18:00 24.4 12.9 49 17 7 32.2 101.10 27   Clear
19:00 23.0 12.5 52 18 4 32.2 101.12 26   Clear
20:00 20.3 12.9 62 33 9 32.2 101.15     Clear
21:00 20.4 13.5 65 33 7 32.2 101.20     Clear
22:00 21.2 15.0 68 28 4 32.2 101.21 25   Clear
23:00 19.1 14.3 74   0 32.2 101.23     Clear

Notes on Data Quality.

Legend

  • E = Estimated
  • M = Missing
  • NA = Not Available
  • ‡ = Partner data that is not subject to review by the National Climate Archives
Date modified: